EHI
1 1 1 0 0 0 0 0 0 0 0 0 0 0 0 0 0 0 0 0 0 0 0 0 0 0 0 0 0 0 0 0 0 0 0 0 0 0 0 0 0 0 0
0 0 0 0 0 0 0 0 0 0 0 0 0 0 0 0 0 0 0 0 0 0 0 0 0 0 0 0 0 0 0 0 0 0 0 0 0 0 0 0 0 0 0
0 0 0 0 0 0 0 0 0 0 0 0 0 0 0 0 0 0 0 0 0 0 0 0 0 0 0 0 0 0 0 0 0 0 0 0 0 0 0 0 0 0 0
0 0 0 0 0 0 0 0 0 0 0 0 0 0 0 0 0 0 0 0 0 0 0 0 0 0 0 0 0 0 0 0 0 0 0 0 0 0 0 0 0 0 0
0 0 0 0 0 0 0 0 0 0 0 0 0 0 0 0 0 0 0 0 0 0 0 0 0 0 0 0 0 0 0 0 0 0 0 0 0 0 0 0 0 0 0
0 0 0 0 0 0 0 0 0 0 0 0 0 0 0 0 0 0 0 0 0 0 0 0 0 0 0 0 0 0 0 0 0 0 0 0 0 0 0 0 0 0 0
0 0 0 0 0 0 0 0 0 0 0 0 0 0 0 0 0 0 0 0 0 0 0 0 0 0 0 0 0 0 0 0 0 0 0 0 0 0 0 0 0 0 0
0 0 0 0 0 0 0 0 0 0 0 0 0 0 0 0 0 0 0 0 0 0 0 0 0 0 0 0 0 0 0 0 0 0 0 0 0 0 0 0 0 0 0
0 0 0 0 0 0 0 0 0 0 0 0 0 0 0 0 0 0 0 0 0 0 0 0 0 0 0 0 0 0 0 0 0 0 0 0 0 0 0 0 0 0 0
0 0 0 0 0 0 0 0 0 0 0 0 0 0 0 0 0 0 0 0 0 0 0 0 0 0 0 0 0 0 0 0 0 0 0 0 0 0 0 0 0 0 0
0 0 0 0 0 0 0 0 0 0 0 0 0 0 0 0 0 0 0 0 0 0 0 0 0 0 0 0 0 0 0 0 0 0 0 0 0 0 0 0 0 0 0
0 0 0 0 0 0 0 0 0 0 0 0 0 0 0 0 0 0 0 0 0 0 0 0 0 0 0 0 0 0 0 0 0 0 0 0 0 0 0 0 0 0 0
0 0 0 0 0 0 0 0 0 0 0 0 0 0 0 0 0 0 0 0 0 0 0 0 0 0 0 0 0 0 0 0 0 0 0 0 0 0 0 0 0 0 0
0 0 0 0 0 0 0 0 0 0 0 0 0 0 0 0 0 0 0 0 0 0 0 0 0 0 0 0 0 0 0 0 0 0 0 0 0 0 0 0 0 0 0
0 0 0 0 0 0 0 0 0 0 0 0 0 0 0 0 0 0 0 0 0 0 0 0 0 0 0 0 0 0 0 0 0 0 0 0 0 0 0 0 0 0 0
0 0 0 0 0 0 0 0 0 0 0 0 0 0 0 0 0 0 0 0 0 0 0 0 0 0 0 0 0 0 0 0 0 0 0 0 0 0 0 0 0 0 0
0 0 0 0 0 0 0 0 0 0 0 0 0 0 0 0 0 0 0 0 0 0 0 0 0 0 0 0 0 0 0 0 0 0 0 0 0 0 0 0 0 0 0
0 0 0 0 0 0 0 0 0 0 0 0 0 0 0 0 0 0 0 0 0 0 0 0 0 0 0 0 0 0 0 0 0 0 0 0 0 0 0 0 0 0 0
0 0 0 0 0 0 0 0 0 0 0 0 0 0 0 0 0 0 0 0 0 0 0 0 0 0 0 0 0 0 0 0 0 0 0 0 0 0 0 0 0 0 0
0 0 0 0 0 0 0 0 0 0 0 0 0 0 0 0 0 0 0 0 0 0 0 0 0 0 0 0 0 0 0 0 0 0 0 0 0 0 0 0 0 0 0
0 0 0 0 0 0 0 0 0 0 0 0 0 0 0 0 0 0 0 0 0 0 0 0 0 0 0 0 0 0 0 0 0 0 0 0 0 0 0 0 0 0 0
0 0 0 0 0 0 0 0 0 0 0 0 0 0 0 0 0 0 0 0 0 0 0 0 0 0 0 0 0 0 0 0 0 0 0 0 0 0 0 0 0 0 0
0 0 0 0 0 0 0 0 0 0 0 0 0 0 0 0 0 0 0 0 0 0 0 0 0 0 0 0 0 0 0 0 0 0 0 0 0 0 0 0 0 0 0
0 0 0 0 0 0 0 0 0 0 0 0 0 0 0 0 0 0 0 0 0 0 0 0 0 0 0 0 0 0 0 0 0 0 0 0 0 0 0 0 0 0 0
0 0 0 0 0 0 0 0 0 0 0 0 0 0 0 0 0 0 0 0 0 0 0 0 0 0 0 0 0 0 0 0 0 0 0 0 0 0 0 0 0 0 0
0 0 0 0 0 0 0 0 0 0 0 0 0 0 0 0 0 0 0 0 0 0 0 0 0 0 0 0 0 0 0 0 0 0 0 0 0 0 0 0 0 0 0
Wind_Speed
2 2 1 1 2 2 2 2 3 3 3 3 3 4 3 3 3 3 3 7 8 7 7 8 8 8 8 9 9 9 9 9 9 9 9 8 8 8 8 8 8 8 8
2 2 2 1 1 1 2 2 3 3 2 2 3 3 3 3 3 3 3 4 8 9 8 8 8 8 7 7 8 8 9 8 8 8 8 8 8 9 9 8 8 7 8
2 2 2 1 1 1 2 3 3 2 2 2 3 3 2 2 3 3 3 3 4 7 8 8 8 8 7 7 7 7 8 8 8 8 8 8 8 8 8 8 8 8 8
2 2 2 1 1 1 2 2 2 2 2 2 2 2 2 2 2 3 3 3 3 3 5 9 8 8 8 7 7 7 7 7 8 8 8 8 8 8 8 8 8 8 8
2 2 2 1 1 2 2 2 2 2 2 2 2 2 2 2 2 2 3 3 3 3 3 6 8 9 8 7 7 7 7 7 7 8 8 8 8 8 8 8 9 8 8
2 2 2 2 2 2 1 2 3 2 2 2 2 2 2 1 1 2 2 2 2 3 3 3 4 5 8 8 7 7 6 6 7 7 7 7 8 8 9 8 8 8 9
2 2 2 2 2 1 2 2 2 3 2 1 2 2 2 2 1 1 1 1 2 2 2 2 2 2 3 6 7 7 7 7 6 7 7 7 8 8 9 9 9 9 8
2 2 2 2 2 2 2 2 2 2 1 1 2 2 1 2 1 1 1 1 1 1 1 2 1 1 1 2 4 7 7 7 7 7 7 8 8 8 9 9 9 9 9
2 2 2 2 2 2 2 2 2 2 2 1 1 3 2 2 2 2 1 0 0 0 1 1 1 1 1 1 2 5 7 8 8 8 8 8 8 9 9 9 9 9 9
2 2 2 2 2 2 2 2 2 1 3 2 1 1 1 2 2 1 2 1 1 1 1 1 1 1 1 1 2 4 6 7 8 8 9 9 9 9 10 10 10 10 10
1 1 1 2 2 2 2 2 2 2 2 2 2 1 1 1 1 2 2 2 2 2 1 2 1 1 1 1 1 3 5 6 7 8 9 9 10 10 10 11 11 11 11
0 1 1 2 2 2 2 2 2 2 2 2 2 2 2 2 2 2 2 2 2 2 2 1 1 1 1 1 2 4 5 6 7 9 9 10 10 10 11 11 11 11 11
1 2 2 2 2 2 3 2 2 2 2 3 2 2 2 2 2 2 2 1 2 2 2 2 1 1 1 1 2 5 5 6 7 9 10 10 10 10 11 11 12 11 11
2 2 2 2 2 3 3 2 2 2 2 3 3 3 2 2 2 2 3 2 1 2 2 3 2 1 1 1 3 5 4 7 8 9 10 10 10 10 11 11 11 12 11
2 2 2 2 2 2 3 3 2 2 2 2 2 2 2 2 2 2 2 3 3 2 3 3 2 2 1 1 4 2 3 7 9 10 10 10 10 10 10 11 11 11 11
2 2 2 2 2 2 2 3 2 2 2 2 2 3 2 2 2 2 3 3 3 3 3 3 3 2 2 2 5 3 3 8 9 10 11 11 11 11 10 10 11 11 11
3 3 3 3 3 3 2 3 3 3 3 3 3 3 4 3 3 3 2 2 3 3 4 4 2 2 2 3 3 3 3 3 5 10 11 12 12 12 11 11 11 11 11
3 3 3 3 3 3 3 3 4 4 4 4 4 4 4 3 3 3 3 4 3 4 4 5 3 2 3 3 3 4 4 3 4 9 11 12 12 12 12 12 11 11 10
3 2 3 3 4 4 4 4 4 4 4 4 4 4 4 4 4 4 4 4 3 3 3 3 4 2 2 2 2 3 4 4 4 7 10 10 11 12 12 12 11 11 11
3 3 3 3 4 4 4 4 3 3 3 4 4 4 4 5 5 5 4 5 4 3 3 3 4 3 3 2 2 3 4 3 4 4 6 7 10 11 11 11 11 11 11
3 3 3 3 3 3 3 4 3 4 3 3 3 4 4 5 7 6 4 4 4 4 3 3 4 3 3 2 3 2 3 4 4 3 3 4 4 4 5 9 10 11 11
2 2 3 3 3 3 5 6 4 3 3 3 4 3 4 4 6 8 9 8 7 6 5 4 4 5 5 4 3 3 3 3 4 2 2 4 3 4 4 4 9 12 11
2 3 3 3 3 4 5 5 5 3 3 4 4 3 3 3 5 4 6 8 8 10 9 6 6 6 5 5 4 4 4 4 5 3 2 5 3 4 4 6 11 11 11
2 2 2 3 2 4 5 5 5 3 3 3 4 4 4 4 4 3 3 3 4 5 6 5 6 6 5 5 5 5 4 4 4 3 3 4 3 4 4 4 9 10 9
2 2 2 2 2 3 4 4 3 2 2 3 3 3 3 4 6 6 3 3 4 4 6 7 8 7 9 9 6 2 2 3 4 3 2 3 2 3 3 4 5 7 8
2 2 2 2 3 3 4 4 3 2 2 2 2 2 5 5 7 6 3 3 5 5 3 3 4 5 4 5 6 4 3 4 3 3 2 2 2 2 4 3 2 2 4
Wind_Direction
122 104 93 86 81 82 88 87 86 84 77 72 75 81 72 63 57 48 31 45 50 52 54 56 57 59 57 58 58 56 52 47 43 38 34 28 25 23 20 16 13 9 10
129 119 95 88 87 92 98 99 96 93 83 79 74 74 73 65 59 52 41 39 48 52 52 51 52 52 51 53 55 52 48 43 38 35 34 29 25 21 17 14 11 9 6
126 126 110 93 94 101 101 97 85 81 82 76 71 72 71 68 69 60 53 44 37 43 48 47 46 45 45 49 53 53 47 41 35 31 27 24 21 17 15 15 14 13 11
124 119 116 99 91 106 109 108 100 88 74 73 72 63 65 70 74 71 63 53 42 39 39 44 40 40 42 44 47 47 46 40 35 31 26 21 16 14 11 8 7 8 6
121 120 123 118 107 105 111 119 100 100 90 74 80 69 59 65 66 76 68 61 52 49 41 38 36 37 38 38 38 36 36 32 30 25 21 18 15 12 7 3 359 358 356
135 127 116 114 108 105 109 124 115 88 97 95 80 60 42 52 63 69 67 64 58 57 51 42 30 24 33 34 29 24 21 20 20 17 11 8 7 5 2 355 351 350 348
128 126 121 115 113 111 125 126 123 106 81 83 83 45 17 30 61 66 64 72 49 47 51 45 32 27 15 24 20 14 7 7 5 5 4 3 1 356 353 352 350 345 343
140 135 130 131 128 113 110 98 113 124 92 77 113 109 19 346 349 20 41 83 50 33 28 23 25 22 17 8 0 9 2 355 355 358 357 359 357 352 348 346 343 345 345
138 130 141 141 136 131 134 127 131 136 143 92 89 130 144 222 297 316 320 3 6 18 326 335 346 345 353 356 339 352 3 356 350 348 348 351 349 348 345 343 343 343 344
135 149 165 153 147 147 148 157 148 143 147 153 112 81 134 156 168 303 310 315 315 286 294 308 303 298 299 304 323 339 356 351 347 343 341 343 342 341 341 342 341 342 342
128 157 171 165 158 157 163 164 140 147 154 160 159 145 110 95 134 166 266 306 325 293 281 275 265 271 280 292 299 320 342 344 343 339 336 334 335 336 335 335 334 334 335
176 182 175 176 169 162 176 181 163 167 160 151 156 165 165 165 176 166 218 270 296 296 301 290 267 265 262 281 299 322 330 332 332 331 329 330 332 333 330 327 325 325 325
218 217 199 190 182 181 183 181 176 184 176 168 179 187 190 189 170 160 169 236 290 297 304 297 271 270 263 274 293 312 316 321 321 322 322 324 328 328 323 319 318 318 318
220 208 201 205 200 185 182 179 188 197 181 185 196 190 193 202 182 174 169 169 271 296 291 279 291 269 277 277 286 306 305 309 310 312 314 316 318 319 317 314 313 312 312
210 195 195 205 202 191 187 179 195 201 186 194 201 201 203 212 196 194 185 180 181 240 275 266 271 279 273 265 288 292 286 296 304 304 304 306 306 307 309 309 309 306 305
208 193 200 206 207 201 194 188 198 202 194 206 200 201 212 213 204 198 196 200 196 199 247 258 253 268 279 288 294 293 280 297 298 299 300 300 298 297 299 302 304 305 305
205 202 203 203 206 209 201 199 207 201 206 218 214 210 225 217 210 205 197 198 204 196 239 270 253 265 268 272 291 288 279 277 283 294 296 296 295 293 293 296 298 300 299
211 207 200 203 210 211 204 205 213 207 208 216 220 214 228 222 221 215 204 208 212 207 217 259 274 266 261 259 269 280 283 278 271 287 292 292 293 293 292 291 292 292 292
217 210 201 209 215 213 210 211 212 214 215 220 219 217 225 216 229 224 215 216 220 221 214 237 266 265 271 266 284 281 277 279 280 284 288 288 291 293 291 289 291 292 290
212 213 214 217 216 213 212 210 207 218 222 227 228 226 225 221 227 227 224 221 218 220 220 230 254 262 262 260 254 275 292 283 287 286 283 288 293 293 291 291 292 292 289
214 211 210 221 219 215 214 207 205 216 222 234 241 238 235 236 236 234 231 221 210 214 220 232 248 255 254 255 257 250 275 294 283 266 281 283 287 281 283 287 289 287 285
221 209 211 213 219 229 237 230 217 211 218 228 243 248 250 251 252 253 253 244 225 216 220 225 240 245 251 244 248 253 270 295 294 273 284 288 268 273 270 261 279 284 282
212 211 215 211 222 238 243 239 231 214 217 228 234 242 256 255 263 247 261 265 255 247 238 227 233 240 244 235 234 250 249 254 261 266 278 282 272 274 273 276 284 281 283
207 209 212 215 223 245 246 243 237 216 224 235 236 233 241 256 253 246 240 257 259 256 252 239 232 241 243 238 228 236 247 259 267 257 220 267 277 273 285 280 281 280 282
215 215 207 206 221 256 252 244 233 194 225 246 247 239 239 243 256 261 242 250 267 269 269 258 252 257 262 263 255 239 242 262 284 276 212 233 273 289 287 277 281 287 290
209 203 216 217 218 239 255 251 235 180 215 252 263 258 260 261 264 263 232 225 254 263 255 267 269 279 277 276 273 242 228 248 272 276 214 219 266 308 304 281 275 284 292